Время (UTC), дата Ветер
(°,м/с) 
Видим.   Явления Облачность Т
(°С)
Тd
(°С)
f(%) Тe
(°С)
Pmin
(гПа)
dP
(гПа)
Po
(мм)
O2
(г/м3)
Тmin Tmax R s Состояние
почвы
00 01.01.12 170 (Ю) 4000 м  слаб. снег  10/10 240 м 
[Frnb|Ns]
-7.5 -8.7 91 -7  1017.9  0.4  752  313           
03 01.01.12 160 (Ю) 4000 м  слаб. снег  10/10 300 м 
[Ns]
-7.5 -8.6 92 -7  1018.5  0.6  753  313        44  равномерный
сухой снег
100% 
06 01.01.12 150 (ЮВ) 10 км  слаб. снег  10/10 1080 м 
[Sc]
-7.1 -8.2 92 -7  1019.4  753  312  -7.8       
09 01.01.12 170 (Ю) >10 км  {снег}  10/0 средняя 
[Ac cast]
-6.2 -7.5 90 -6  1019.9  0.5  754  312           
12 01.01.12 140 (ЮВ) >10 км  {снег}  10/0 средняя 
[Sc|As op]
-5.7 -7.2 89 -7  1020.4  0.5  754  311           
15 01.01.12 140 (ЮВ) 10 км    10/0 средняя 
[As trans]
-5.6 -6.6 93 -5  1020.9  0.5  754  311    -5.6       
18 01.01.12 130 (ЮВ) 10 км    9/0 средняя 
[Ac cast]
-5.6 -6.6 93 -5  1020.5  -0.3  754  311    -5.6       
21 01.01.12 110 (В) 10 км    10/0 средняя 
[Ac As]
-5.5 -6.7 91 -7  1020.4  0.1  754  311           
00 02.01.12 110 (В) 10 км    10/0 средняя 
[As op]
-5.2 -6.5 91 -7  1020.7  0.4  754  311           
03 02.01.12 110 (В) 10 км    10/0 средняя 
[Ac As]
-5.2 -6.4 91 -8  1019.9  -0.8  754  310        43  равномерный
сухой снег
100% 
06 02.01.12 100 (В) 10 км    10/10 480 м 
[St]
-5 -6.3 91 -6  1020.4  0.5  754  310  -5.7         
09 02.01.12 100 (В) 4000 м  дымка  10/10 210 м 
[St]
-4.7 -5.8 92 -6  1020  -0.4  754  310           
12 02.01.12 090 (В) 10 км    10/8 660 м средняя 
[Sc|Ac und]
-4.7 -6 91 -4  1020.3  0.3  754  310           
15 02.01.12 080 (В) 10 км    10/0 
[St]
-5.9 -7.2 90 -7  1020.6  0.2  754  311           
18 02.01.12 060 (СВ) 10 км    10/10 600 м 
[Sc]
-6 -7.4 90 -7  1020.5  0.2  754  311    -4.5       
21 02.01.12 030 (СВ) 10 км  слаб. снег  10/10 600 м 
[Sc]
-6.3 -7.6 90 -6  1020.4  0.1  754  312           
00 03.01.12 020 (С) 10 км  слаб. снег  10/10 660 м 
[Sc]
-6.5 -7.9 90 -6  1020.3  0.1  754  312           
03 03.01.12 030 (СВ) 10 км  слаб. снег  10/10 700 м 
[Sc]
-6.6 -8.1 89 -6  1020.6  0.3  754  312        43  равномерный
сухой снег
100% 
06 03.01.12 020 (С) 10 км  слаб. снег  10/10 700 м 
[Sc]
-6.8 -8.2 90 -6  1020.8  0.2  754  313  -6.7    0.0     
09 03.01.12 310 (СЗ) 10 км  слаб. снег  9/8 700 м средняя 
[Sc|Ac cast]
-5.7 -7.9 84 -5  1020.3  -0.4  754  311           
12 03.01.12 290 (З) 10 км  {снег}  10/10 480 м 
[Sc]
-6.4 -8.1 88 -6  1020.2  -0.1  754  312           
15 03.01.12 310 (СЗ) 10 км    9/9 330 м 
[St]
-8.1 -9.3 91 -8  1020.3  754  314    -5.3       
18 03.01.12 240 (ЮЗ) 1000 м  дымка  10/0 средняя 
[As trans]
-9.8 -10.7 93 -10  1020  -0.4  754  316    -5.3  0.0     
21 03.01.12 150 (ЮВ) 1000 м  переохл. туман [диам. изморози 2 мм]  10/0 средняя 
[As trans]
-10.6 -11.6 92 -10  1019.3  -0.4  753  317           
00 04.01.12 150 (ЮВ) 1000 м  переохл. туман [диам. изморози 4 мм]  8/0 средняя 
[As trans]
-11.7 -12.8 92 -12  1018.5  -0.9  752  318           
03 04.01.12 140 (ЮВ) 2000 м  дымка [диам. сложн. отлож. 6 мм]  9/0 средняя 
[As trans]
-11.4 -12.5 91 -13  1017  -0.9  751  317        39  равномерный
сухой снег
100% 
06 04.01.12 150 (ЮВ) 4000 м  дымка  10/0 средняя 
[Ac trans]
-10.1 -11.1 92 -12  1016.2  -0.7  751  315  -12.1         
09 04.01.12 160 (Ю) 10 км  слаб. снег  10/0 средняя 
[Ac As]
-8.9 -9.9 93 -12  1014.2  -1.9  749  313           
12 04.01.12 170 (Ю) 4000 м  слаб. снег  10/0 средняя 
[As op]
-8.7 -9.6 93 -12  1013.4  -0.7  749  313           
15 04.01.12 170 (Ю) 10 км  слаб. снег  10/10 900 м 
[Sc]
-8.5 -9.4 93 -10  1013.6  0.2  749  312    -8.5       
18 04.01.12 170 (Ю) 10 км  {снег}  10/10 360 м 
[St]
-8.1 -9 93 -8  1013.4  -0.2  749  312    -8.5     
21 04.01.12 180 (Ю) 10 км    10/10 240 м 
[St]
-7.4 -8.3 93 -9  1012.4  -0.9  748  311           
00 05.01.12 180 (Ю) 4000 м  дымка  10/10 270 м 
[St]
-6.5 -7.3 94 -8  1013  0.6  749  310           
03 05.01.12 160 (Ю) 4000 м  дымка{снег}  10/10 210 м 
[St]
-6.3 -7 95 -9  1011.9  -1  748  309        43  равномерный
сухой снег
100% 
06 05.01.12 180 (Ю) 3{10}  10 км  {снег}  10/10 240 м 
[St]
-4.9 -5.6 95 -7  1010.6  -1.2  747  307  -8.5    0.0     
09 05.01.12 190 (Ю) >10 км    10/10 500 м 
[Sc]
-3.2 -4.1 93 -5  1008.6  -1.9  746  304           
12 05.01.12 180 (Ю) 4{10}  10 км    10/10 540 м 
[Sc]
-2.4 -3.6 91 -5  1007.9  -0.7  745  303           
15 05.01.12 190 (Ю) 4{10}  10 км    10/10 600 м 
[Sc]
-2.2 -3.5 91 -5  1008.1  0.2  745  303    -2.2       
18 05.01.12 200 (Ю) 2000 м  снег  10/10 300 м 
[Ns]
-1.9 -2.9 93 -1  1009.2  1.1  746  303    -2.2       
21 05.01.12 200 (Ю) 4000 м  слаб. снег  10/10 400 м 
[Ns]
-0.8 -1.9 92 -2  1010.2  1.1  747  302           
00 06.01.12 170 (Ю) 10 км  {снег}  10/10 800 м 
[Sc]
-0.3 -1.5 91 -1  1012.2  748  302           
03 06.01.12 190 (Ю) 10 км  слаб. снег  10/10 800 м 
[Sc]
+0.1 -0.7 94 -1  1012.9  0.7  749  302        44  равномерный
сухой снег
100% 
06 06.01.12 170 (Ю) 10 км  {снег}  10/10 210 м 
[St]
+0.4 -0.5 94 -1  1014.3  1.5  750  302  -2.2       
09 06.01.12 190 (Ю) 4{10}  10 км    10/10 210 м 
[St]
+0.5 -0.5 93 -2  1015.8  1.4  751  302           
12 06.01.12 180 (Ю) 4-11{11}  10 км    10/10 500 м 
[Sc]
+1 -0.5 90 -1  1015.9  1.4  751  302           
15 06.01.12 190 (Ю) 4-12{17}  10 км    10/10 420 м 
[Sc]
+0.6 -1.2 88 -2  1017.9  1.9  752  303    +1.1       
18 06.01.12 190 (Ю) 4{13}  10 км    10/10 600 м 
[Sc]
-0.3 -2.7 84 -3  1018.9  0.9  753  304    +1.1  0.0     
21 06.01.12 160 (Ю) 4{11}  10 км    10/10 600 м 
[Sc]
-1.6 -3.4 87 -4  1019.8  0.8  754  306           
00 07.01.12 160 (Ю) 3{10}  10 км    3/0 верхняя 
[Ci fib]
-4.3 -6.4 85 -7  1020.8  0.8  754  310           
03 07.01.12 160 (Ю) 5-10{10}  10 км    10/10 660 м 
[Sc]
-7.3 -9.4 85 -12  1021.5  0.5  755  313        39  равномерный
сухой снег
100% 
06 07.01.12 170 (Ю) 2{11}  10 км    10/10 600 м 
[Sc]
-7.1 -8.8 88 -9  1022.5  756  313  -7.3         
09 07.01.12 170 (Ю) 10 км  слаб. снег  10/10 540 м 
[Sc]
-7.3 -9.3 86 -10  1021.9  -0.6  755  314           
12 07.01.12 170 (Ю) 10 км  {снег}  10/10 480 м 
[Sc]
-7.6 -9.4 87 -11  1022.2  0.3  755  314           
15 07.01.12 170 (Ю) 10 км  {снег}  10/10 540 м 
[Sc]
-7.6 -9.5 86 -10  1021.9  -0.3  755  314    -6.9       
18 07.01.12 160 (Ю) 5-10{11}  10 км  {снег}  10/5 600 м средняя 
[Sc|Ac As]
-7.3 -8.8 89 -12  1021.7  -0.3  755  313    -6.9  0.6     
21 07.01.12 170 (Ю) 3{11}  10 км    10/10 570 м 
[Sc]
-7.1 -8.4 91 -10  1022.5  0.9  756  313           
00 08.01.12 170 (Ю) 10 км    10/10 630 м 
[Sc]
-6.3 -7.6 90 -9  1024  1.5  757  313           
03 08.01.12 170 (Ю) 10 км    10/10 240 м 
[St]
-5.8 -6.9 92 -8  1024.1  -0.1  757  312        40  равномерный
сухой снег
100% 
06 08.01.12 180 (Ю) >10 км    10/10 300 м 
[St]
-7 -8.3 90 -10  1026.1  758  314  -7.7         
09 08.01.12 180 (Ю) >10 км  {снег}  10/0 средняя, верхняя 
[Ac trans|Ci fib]
-9.1 -11.1 85 -12  1027.4  1.1  759  317           
12 08.01.12 160 (Ю) >10 км  {снег}  10/0 средняя, верхняя 
[Ac trans|Ci fib]
-10.3 -12.5 84 -14  1027.5  759  319           
15 08.01.12 160 (Ю) 10 км    10/0 средняя, верхняя 
[Ac trans|Ci fib]
-11.1 -13.7 81 -14  1028.2  0.7  760  320    -5.8       
18 08.01.12 170 (Ю) 10 км    10/0 средняя, верхняя 
[Ac trans|Ci fib]
-11.7 -14.1 82 -14  1028.5  0.3  760  321      >989     
21 08.01.12 160 (Ю) 10 км    10/0 <0100 м средняя, верхняя 
[Ac trans|Ci fib]
-11.5 -13.6 84 -15  1028.8  0.3  760  321           
00 09.01.12 160 (Ю) 10 км    10/0 <0100 м средняя, верхняя 
[Ac trans|Ci fib]
-11.5 -13.3 87 -15  1028.9  760  321           
03 09.01.12 150 (ЮВ) 10 км    10/0 <0100 м средняя, верхняя 
[Ac trans|Ci fib]
-11.5 -13 89 -15  1028.4  -0.4  760  321        40  равномерный
сухой снег
100% 
06 09.01.12 150 (ЮВ) >10 км    10/0 верхняя 
[Ci fib]
-11.4 -13.1 87 -15  1029  0.5  760  321  -12.1         
09 09.01.12 150 (ЮВ) >10 км    10/0 <0100 м верхняя 
[Ci fib]
-10.8 -13.2 83 -14  1029  0.1  760  320           
12 09.01.12 150 (ЮВ) >10 км    10/0 <0100 м верхняя 
[Ci fib]
-11.1 -13.7 81 -14  1029.1  760  321           
15 09.01.12 140 (ЮВ) 10 км    3/0 <0100 м верхняя 
[Ci fib]
-11.2 -13.5 83 -13  1028.7  -0.3  760  321    -10.5       
18 09.01.12 140 (ЮВ) 10 км    4/0 верхняя 
[Ci]
-11.3 -13.5 84 -14  1028.1  -0.6  760  320    -10.7       
21 09.01.12 150 (ЮВ) 10 км    ясно 
-12.1 -14.2 84 -14  1027.7  -0.5  759  321           
00 10.01.12 110 (В) 10 км    ясно 
-12.9 -14.9 85 -15  1026.6  -1.1  758  322           
03 10.01.12 110 (В) 10 км    ясно 
-13.8 -15.6 86 -16  1025.9  -0.8  758  323           
06 10.01.12 110 (В) >10 км    10/0 <0100 м верхняя 
[Ci fib]
-14 -15.7 87 -18  1025.3  -0.5  757  323  -14         
09 10.01.12 150 (ЮВ) >10 км    5/0 <0100 м верхняя 
[Cs]
-11.2 -13.8 81 -13  1023.9  -1.2  756  319           
12 10.01.12 140 (ЮВ) >10 км    10/0 <0100 м верхняя 
[Ci sp]
-11.4 -13.9 82 -13  1022.9  -1.1  756  319           
15 10.01.12 110 (В) 10 км    8/0 <0100 м верхняя 
[Ci fib]
-12.4 -14.4 85 -14  1022.2  -0.7  755  320    -11.1       
18 10.01.12 160 (Ю) 10 км    ясно 
-12.5 -14.5 85 -12  1021.5  -0.7  755  320    -11.1       
21 10.01.12 140 (ЮВ) 10 км    10/0 <0100 м средняя 
[As op]
-12.6 -14.3 87 -13  1020.6  -0.8  754  320           
00 11.01.12 150 (ЮВ) 10 км    10/0 <0100 м средняя 
[Ac As]
-12.5 -14.1 88 -12  1019.7  -0.9  753  319           
03 11.01.12 150 (ЮВ) 10 км    10/0 <0100 м средняя 
[As op]
-12 -13.6 88 -12  1018.8  -0.8  753  318        40  равномерный
сухой снег
100% 
06 11.01.12 160 (Ю) 10 км  слаб. снег  10/0 средняя 
[As op]
-12.5 -14.1 88 -15  1018.6  -0.2  752  319  -14.2         
09 11.01.12 160 (Ю) 10 км  слаб. снег  10/0 <0100 м средняя 
[As trans]
-11.7 -13.6 86 -12  1017.8  -0.7  752  318           
12 11.01.12 160 (Ю) 10 км  слаб. снег  10/10 400 м 
[Ns]
-11.4 -13.3 86 -11  1017.2  -0.6  751  317           
15 11.01.12 170 (Ю) 10 км  слаб. снег  10/10 270 м 
[Frnb|Ns]
-11.3 -12.8 89 -11  1017  -0.2  751  317    -11.3       
18 11.01.12 240 (ЮЗ) 10 км  {снег}  9/9 <0100 м средняя 
[Ac cast]
-11.1 -12.5 89 -11  1016.2  -0.7  751  316    -11.3  0.8     
21 11.01.12 240 (ЮЗ) 10 км  {снег}  10/10 540 м 
[Sc]
-11.1 -12.9 87 -13  1015.8  -0.4  750  316           
00 12.01.12 180 (Ю) 10 км  слаб. снег  10/10 300 м 
[Ns]
-11 -12.6 88 -11  1015.6  -0.2  750  316           
03 12.01.12 170 (Ю) 10 км  слаб. снег  10/10 270 м 
[Frnb|Ns]
-10.6 -12 89 -10  1015.2  -0.3  750  316        41  равномерный
сухой снег
100% 
06 12.01.12 170 (Ю) 10 км  слаб. снег  10/10 330 м 
[Ns]
-9.4 -10.8 90 -9  1015  0.1  750  314  -11.3    0.4     
09 12.01.12 160 (Ю) 10 км  слаб. снег  10/0 средняя 
[As trans]
-8 -9.4 90 -8  1014.1  -0.8  749  312           
12 12.01.12 160 (Ю) 10 км  слаб. снег  10/0 средняя 
[As trans]
-7.5 -8.7 91 -9  1013.2  -0.9  749  311           
15 12.01.12 150 (ЮВ) 10 км  {снег}  10/10 720 м 
[Sc]
-7.6 -8.8 91 -10  1012.2  -1  748  311    -7.2       
18 12.01.12 160 (Ю) 4000 м  слаб. снег  10/10 210 м 
[Frnb|Ns]
-8 -9.3 90 -11  1010.8  -1.4  747  311    -7.2  0.6     
21 12.01.12 160 (Ю) 4000 м  слаб. снег  10/0 <0100 м средняя 
[As op]
-8 -9.1 92 -11  1009.7  -1  746  311           
00 13.01.12 160 (Ю) 2000 м  снег  10/10 210 м 
[Frnb|Ns]
-7.4 -8.5 92 -9  1008.8  -0.8  745  310           
03 13.01.12 190 (Ю) 10 км  {снег}  10/10 500 м 
[Sc]
-5.8 -6.8 92 -7  1008.2  -0.5  745  307        42  равномерный
сухой снег
100% 
06 13.01.12 180 (Ю) 10 км  {снег}  10/10 500 м 
[Sc]
-4.6 -5.7 92 -4  1008.5  0.3  745  306  -8.1       
09 13.01.12 190 (Ю) >10 км    9/9 600 м 
[Sc]
-2.9 -4.6 88 -2  1008.5  745  304           
12 13.01.12 170 (Ю) >10 км    10/10 600 м 
[Sc]
-4.1 -5.9 87 -5  1008.2  0.1  745  305           
15 13.01.12 190 (Ю) 10 км    10/10 630 м 
[Sc]
-2.9 -5.4 83 -4  1008.3  0.1  745  304    -2.9       
18 13.01.12 180 (Ю) 10 км    10/10 700 м 
[Sc]
-3 -5.5 83 -4  1008.3  745  304    -2.9       
21 13.01.12 180 (Ю) 10 км    10/10 720 м 
[Sc]
-2.4 -4.3 87 -3  1008.8  0.6  746  304           
00 14.01.12 160 (Ю) 10 км    9/9 700 м 
[Sc]
-2.3 -4.1 87 -4  1009.8  0.9  746  304           
03 14.01.12 180 (Ю) 10 км    10/10 800 м 
[Sc]
-2.4 -4.4 86 -4  1010.2  0.4  747  304        42  равномерный
сухой снег
100% 
06 14.01.12 180 (Ю) 10 км    10/10 700 м 
[Sc]
-2.9 -4.9 86 -5  1012.3  1.5  748  305  -3.2         
09 14.01.12 170 (Ю) 10 км    10/10 720 м 
[Sc]
-1.9 -3.5 89 -3  1012.7  0.9  749  304           
12 14.01.12 160 (Ю) 10 км  слаб. снег  10/10 360 м 
[Ns]
-1.9 -3.1 92 -4  1013.5  0.8  749  304           
15 14.01.12 160 (Ю) 10 км  слаб. снег  10/10 330 м 
[Ns]
-1.6 -2.8 92 -4  1014.4  0.8  750  304    -1.6       
18 14.01.12 160 (Ю) 10 км  в посл. час снег  10/10 450 м 
[Ns]
-2.2 -3.9 88 -4  1015.4  751  305    -1.6  0.9     
21 14.01.12 160 (Ю) 10 км    10/10 500 м 
[Sc]
-3.3 -4.9 89 -5  1016.5  751  307           
00 15.01.12 140 (ЮВ) 10 км  слаб. снег  10/10 500 м 
[Sc]
-4.3 -5.7 90 -7  1016.9  0.4  752  308           
03 15.01.12 140 (ЮВ) 4{10}  4000 м  слаб. снег  10/10 500 м 
[Sc]
-3 -4.2 91 -6  1017.3  0.4  752  307        42  равномерный
сухой снег
100% 
06 15.01.12 150 (ЮВ) 4{10}  10 км  {снег}  10/10 240 м 
[St]
-2.5 -3.8 91 -5  1018.8  1.6  753  307  -4.5    0.3     
09 15.01.12 150 (ЮВ) 10 км    10/10 210 м 
[St]
-1.7 -3.4 88 -4  1020.5  1.7  754  306           
12 15.01.12 140 (ЮВ) 10 км  {снег}  10/10 300 м 
[St]
-2.1 -3.7 89 -4  1022.4  1.8  756  307           
15 15.01.12 140 (ЮВ) 10 км    10/10 1110 м 
[Sc]
-2.7 -4.3 89 -5  1023.6  1.2  757  308    -1.7       
18 15.01.12 140 (ЮВ) 10 км    10/10 270 м 
[St]
-4 -5.3 91 -6  1024  0.3  757  310    -1.7  0.2     
21 15.01.12 120 (ЮВ) 10 км  слаб. снег  10/10 270 м 
[Frnb|Ns]
-3.4 -5 89 -5  1024  757  309           
00 16.01.12 140 (ЮВ) 10 км  слаб. снег  10/10 300 м 
[Ns]
-3.5 -5.6 85 -6  1023.9  0.1  757  310           
06 16.01.12 130 (ЮВ) >10 км  {снег}  10/10 700 м 
[Sc]
-3.1 -5.4 84 -4  1023.5  -0.4  756  309  -4.1    0.0     
09 16.01.12 110 (В) >10 км    10/10 800 м 
[Sc]
-3.1 -5.5 84 -5  1023.6  0.1  757  309           
12 16.01.12 110 (В) >10 км  слаб. снег  10/10 800 м 
[Sc]
-3.2 -5.6 83 -5  1023.4  -0.2  756  309           
15 16.01.12 110 (В) 1000 м  сильн. снег  10/10 210 м 
[Ns]
-3.9 -4.9 93 -6  1023.3  -0.1  756  310    -3       
18 16.01.12 110 (В) 1000 м  сильн. снег  10/10 210 м 
[Ns]
-4.3 -5.2 93 -7  1023.6  0.2  756  310    -3     
21 16.01.12 140 (ЮВ) 2000 м  снег  10/10 210 м 
[Ns]
-4.3 -5.1 94 -7  1024.4  0.8  757  311           
00 17.01.12 140 (ЮВ) 2000 м  снег  10/10 360 м 
[Frnb|Ns]
-5.1 -5.9 94 -6  1024.1  -0.3  757  311           
03 17.01.12 140 (ЮВ) 4000 м  слаб. снег  10/10 270 м 
[Frnb|Ns]
-5.6 -6.7 92 -8  1024.3  0.2  757  312        51  равномерный
сухой снег
100% 
06 17.01.12 110 (В) 10 км  слаб. снег  10/10 540 м 
[Sc]
-5.9 -7.1 91 -7  1024.3  757  313  -5.6       
09 17.01.12 120 (ЮВ) 2000 м  снег  10/10 210 м 
[Ns]
-5.7 -6.7 93 -8  1023.8  757  312           
12 17.01.12 130 (ЮВ) 2000 м  снег  10/10 180 м 
[Ns]
-5.4 -6.3 93 -8  1022.2  -1.5  755  311           
15 17.01.12 150 (ЮВ) 10 км  слаб. снег  10/10 420 м 
[Ns]
-4.3 -5.3 93 -7  1023.3  1.1  756  310    -4.3       
18 17.01.12 160 (Ю) 10 км  слаб. крупа{снег}  10/10 360 м 
[Frnb|Ns]
-3.9 -5.2 91 -7  1024.8  1.5  757  310    -4.3     
21 17.01.12 180 (Ю) 10 км  слаб. снег  10/10 360 м 
[Frnb|Ns]
-4 -5 93 -6  1027.5  1.5  759  311           
00 18.01.12 170 (Ю) 10 км  {снег}  10/10 450 м 
[Sc]
-4 -4.8 94 -5  1029.4  1.9  761  312           
03 18.01.12 160 (Ю) 4000 м    10/10 180 м 
[St]
-4.5 -5 96 -7  1030.7  1.3  762  313        53  равномерный
сухой снег
100% 
06 18.01.12 150 (ЮВ) 4000 м  снежные зёрна [диам. гололёда 1 мм]  10/10 180 м 
[St]
-4.7 -5.3 96 -7  1031.8  763  313  -4.5         
09 18.01.12 140 (ЮВ) 4000 м  снежные зёрна [макс. диам. градин 2 мм]  10/10 180 м 
[St]
-5.7 -6.6 93 -7  1032  0.1  763  315           
12 18.01.12 110 (В) 1000 м  сильн. снег [диам. гололёда 2 мм]  10/10 180 м 
[Ns]
-6.9 -7.8 93 -8  1031.7  -0.4  762  316           
15 18.01.12 110 (В) 10 км  слаб. снег [диам. гололёда 2 мм]  10/10 500 м 
[Sc]
-8.1 -9.6 89 -11  1031.2  -0.6  762  317    -4.4       
18 18.01.12 130 (ЮВ) 10 км  {снег} [диам. гололёда 2 мм]  6/0 <0100 м средняя 
[Ac cast]
-8.5 -11.2 81 -11  1029.3  -1.9  761  317    -4.3     
21 18.01.12 150 (ЮВ) 10 км  слаб. снег [диам. гололёда 2 мм]  10/10 900 м 
[Sc]
-8.8 -11.5 81 -12  1028.6  -0.7  760  318           
00 19.01.12 150 (ЮВ) 10 км  слаб. снег [диам. гололёда 2 мм]  10/10 400 м 
[Ns]
-9.7 -11.5 87 -13  1027.9  -0.7  759  318           
03 19.01.12 160 (Ю) 10 км  слаб. снег [диам. гололёда 2 мм]  10/10 570 м 
[Sc]
-10 -11.7 87 -12  1028.5  0.6  760  319        53  равномерный
сухой снег
100% 
06 19.01.12 160 (Ю) 10 км  слаб. снег [диам. гололёда 2 мм]  10/0 <0100 м средняя 
[As op]
-10.5 -12.1 88 -12  1030  0.6  761  320  -10    0.5     
09 19.01.12 190 (Ю) 4000 м  слаб. снег [диам. гололёда 2 мм]  10/0 <0100 м средняя 
[As trans]
-10.1 -11.9 87 -13  1031.7  1.7  762  320           
12 19.01.12 160 (Ю) 10 км  {снег}  10/0 <0100 м средняя 
[As op]
-10.2 -12 87 -12  1033.5  1.7  764  321           
15 19.01.12 160 (Ю) 10 км    10/0 <0100 м средняя 
[As trans]
-11.1 -12.5 89 -13  1034  0.5  764  322    -9.9       
18 19.01.12 150 (ЮВ) 10 км    10/0 средняя 
[Ac As]
-11 -12.4 89 -13  1034.1  764  322    -9.9  0.4     
21 19.01.12 130 (ЮВ) 10 км    10/0 средняя 
[Ac As]
-10.9 -12.5 88 -13  1034.3  0.2  764  322           
00 20.01.12 120 (ЮВ) 10 км    10/0 <0100 м средняя 
[As op]
-10.5 -12.1 88 -10  1034.2  0.1  764  321           
03 20.01.12 140 (ЮВ) 10 км    4/0 средняя 
[Ac lent]
-13.6 -16.7 78 -16  1034.3  764  325        52  равномерный
сухой снег
100% 
06 20.01.12 140 (ЮВ) >10 км    10/0 средняя, верхняя 
[Ac cast|Ci sp]
-15.7 -19.9 70 -18  1034.8  0.4  764  328  -16         
09 20.01.12 150 (ЮВ) >10 км    10/3 <0100 м средняя, верхняя 
[Sc|Ac cast|Ci fib]
-14.3 -20 62 -18  1035.2  0.5  765  327           
12 20.01.12 140 (ЮВ) >10 км    10/0 средняя 
[Sc diur, vesp|Ac cast]
-14.3 -19.7 64 -16  1035.8  0.6  765  327           
15 20.01.12 150 (ЮВ) 10 км    3/3 <0100 м средняя 
[Ac lent]
-14.9 -20.2 64 -19  1036.8  0.9  766  328    -13.6       
18 20.01.12 150 (ЮВ) 10 км    9/0 <0100 м средняя 
[Ac trans]
-15.6 -20.8 64 -19  1037.2  0.4  766  329    -13.6       
21 20.01.12 150 (ЮВ) 10 км    9/0 <0100 м средняя 
[Ac trans]
-15.5 -21 63 -19  1038.2  0.9  767  329           
00 21.01.12 150 (ЮВ) 10 км    6/0 <0100 м средняя 
[Ac trans]
-15.9 -21.3 63 -20  1038.9  0.7  767  330           
03 21.01.12 150 (ЮВ) 10 км    3/0 <0100 м средняя 
[Ac trans]
-16 -21.8 61 -21  1039  0.1  767  330        53  равномерный
сухой снег
100% 
06 21.01.12 150 (ЮВ) >10 км    10/0 <0100 м верхняя 
[Ci fib]
-16.4 -22.3 61 -20  1040.4  1.4  768  331  -16.2         
09 21.01.12 160 (Ю) >10 км    10/0 <0100 м верхняя 
[Ci fib]
-15 -21.6 57 -19  1041.2  0.9  769  330           
12 21.01.12 140 (ЮВ) 3{10}  >10 км    10/0 <0100 м верхняя 
[Ci fib]
-15.4 -21.6 59 -19  1041.1  -0.2  769  330           
15 21.01.12 150 (ЮВ) 10 км    3/0 <0100 м верхняя 
[Ci fib]
-16.1 -22 60 -18  1042.8  1.7  770  331    -14.7       
18 21.01.12 160 (Ю) 10 км    ясно <0100 м 
-16.1 -22.1 60 -18  1043.5  0.6  771  332    -14.7       
21 21.01.12 150 (ЮВ) н/о    н/о 
-16 -21.8 61 -20  1043.2  -0.2  770  331           
00 22.01.12 150 (ЮВ) 10 км    ясно 
-16.2 -21.3 65 -20  1043.4  0.2  771  332           
03 22.01.12 140 (ЮВ) 10 км    ясно 
-15.1 -20.4 64 -20  1043  -0.3  770  330        53  равномерный
сухой снег
100% 
06 22.01.12 150 (ЮВ) >10 км    ясно 
-14.4 -21.5 55 -19  1043.2  0.3  771  329  -16.3         
09 22.01.12 150 (ЮВ) >10 км    ясно 
-12.5 -21.7 46 -17  1043.5  0.4  771  327           
12 22.01.12 150 (ЮВ) >10 км    ясно 
-12.3 -21.4 47 -16  1043.3  -0.2  771  327           
15 22.01.12 120 (ЮВ) 10 км    ясно 
-13.8 -21.3 53 -16  1043.8  0.3  771  329    -11.8       
18 22.01.12 140 (ЮВ) 10 км    ясно 
-13.1 -21.7 48 -17  1043.7  771  328    -11.8       
21 22.01.12 130 (ЮВ) 10 км    ясно 
-14 -22 50 -16  1043.6  -0.2  771  329           
00 23.01.12 110 (В) 10 км    ясно 
-15.6 -22.1 57 -18  1044.1  0.4  771  331           
03 23.01.12 110 (В) 10 км    ясно 
-16.3 -22.1 60 -20  1044.2  771  332        53  равномерный
сухой снег
100% 
06 23.01.12 110 (В) >10 км    ясно 
-16.3 -20.2 72 -19  1044.3  0.1  771  332  -16.3         
09 23.01.12 100 (В) >10 км    ясно 
-13 -18.8 62 -15  1043.9  -0.2  771  328           
12 23.01.12 090 (В) >10 км    ясно 
-12.7 -18.1 64 -13  1043.8  771  327           
15 23.01.12 090 (В) 10 км    ясно 
-13.7 -18.7 66 -14  1043.9  771  329    -12.6       
18 23.01.12 090 (В) 10 км    ясно 
-14.3 -19.2 66 -14  1042.9  -1.1  770  329    -12.6       
21 23.01.12 тихо ()   10 км    ясно 
-15.1 -19.9 66 -15  1042.7  -0.2  770  330           
00 24.01.12 100 (В) 10 км    ясно 
-17.4 -20 80 -18  1042.4  -0.2  770  333           
03 24.01.12 тихо ()   10 км    ясно 
-17.9 -20.8 78 -18  1042.1  -0.3  770  333        53  равномерный
сухой снег
100% 
06 24.01.12 тихо ()   >10 км    ясно 
-17.3 -20 79 -17  1042.2  0.1  770  333  -17.9         
09 24.01.12 тихо ()   >10 км    ясно 
-8.8 -17.4 50 -9  1041.5  -0.2  770  322           
12 24.01.12 010 (С) >10 км    ясно 
-10.8 -18.1 55 -11  1041  -0.6  769  324           
15 24.01.12 010 (С) 10 км    ясно 
-13.6 -19 64 -14  1040.6  -0.5  769  327    -7.9       
18 24.01.12 тихо ()   10 км    ясно 
-16.2 -19 79 -16  1040.5  -0.3  768  331    -7.9       
21 24.01.12 030 (СВ) 10 км    ясно 
-16.3 -19.7 75 -16  1040.3  -0.2  768  331           
00 25.01.12 040 (СВ) 10 км    ясно 
-16.8 -20.1 75 -17  1040  -0.3  768  331           
03 25.01.12 тихо ()   10 км    ясно 
-17.7 -21.1 75 -18  1040.2  -0.3  768  333        53  равномерный
сухой снег
100% 
06 25.01.12 110 (В) >10 км    ясно 
-16.2 -19.8 74 -16  1040.9  0.8  769  331  -17.7         
09 25.01.12 080 (В) >10 км    ясно 
-12.7 -19.5 57 -13  1041.1  0.4  769  327           
12 25.01.12 030 (СВ) >10 км    ясно 
-13.3 -20.2 56 -15  1041.5  0.3  769  327           
15 25.01.12 080 (В) 10 км    ясно 
-14.1 -21.5 53 -14  1042.2  0.6  770  329    -12.1       
18 25.01.12 070 (В) 10 км    ясно 
-14.5 -22.8 49 -15  1043.2  771  330    -12.1       
21 25.01.12 тихо ()   10 км    ясно 
-16.4 -23.6 54 -16  1044.9  1.5  772  333           
00 26.01.12 030 (СВ) 10 км    ясно 
-17.9 -22.8 65 -18  1045.8  0.8  772  335           
03 26.01.12 тихо ()   10 км    ясно 
-19.9 -23.4 74 -20  1047.1  1.2  773  338        53  равномерный
сухой снег
100% 
06 26.01.12 тихо ()   >10 км    ясно 
-19 -21.7 79 -19  1048.5  1.4  774  337  -20.1         
09 26.01.12 090 (В) >10 км    ясно 
-13.5 -21.8 50 -13  1049.3  1.1  775  330           
12 26.01.12 110 (В) >10 км    ясно 
-13.1 -21.6 49 -13  1050.2  0.9  776  330           
15 26.01.12 тихо ()   10 км    ясно 
-16.8 -21.5 67 -17  1051  0.6  776  335    -11.8       
18 26.01.12 тихо ()   10 км    ясно 
-18.4 -21.6 76 -18  1051.3  0.2  776  337    -11.8       
21 26.01.12 тихо ()   10 км    ясно 
-19.6 -22.8 75 -20  1051.8  0.4  777  339           
00 27.01.12 010 (С) 10 км    ясно 
-20.1 -23.5 74 -20  1051.6  -0.2  776  339           
03 27.01.12 020 (С) 10 км    ясно 
-20.4 -23.4 77 -21  1051.4  -0.3  776  340        53  равномерный
сухой снег
100% 
06 27.01.12 тихо ()   10 км    ясно 
-20.4 -22.8 81 -20  1051.4  0.1  776  340  -20.6         
09 27.01.12 тихо ()   >10 км    ясно 
-14 -19.7 62 -14  1050.7  -0.3  776  331           
12 27.01.12 020 (С) >10 км    ясно 
-12.8 -19.2 59 -15  1049.6  -0.3  775  329           
15 27.01.12 040 (СВ) 10 км    ясно 
-14.3 -19.2 66 -18  1049.3  -0.4  775  331    -12.5       
18 27.01.12 060 (СВ) 10 км    ясно 
-13.2 -22.8 44 -15  1048.4  -0.9  774  330    -12.5       
21 27.01.12 050 (СВ) 10 км    ясно 
-14.1 -22 51 -16  1047.8  -0.6  774  331           
00 28.01.12 020 (С) 10 км    ясно 
-16.8 -22.5 61 -17  1047.6  -0.4  774  334           
03 28.01.12 010 (С) 10 км    ясно 
-14.8 -20.6 61 -15  1046.6  -0.8  773  331           
06 28.01.12 350 (С) >10 км    ясно 
-13.9 -20.7 56 -14  1046.3  -0.2  773  330  -17.2         
09 28.01.12 030 (СВ) >10 км    1/0 средняя 
[Ac lent]
-11.9 -20.5 49 -14  1045.8  -0.4  773  327           
12 28.01.12 020 (С) >10 км    1/0 средняя 
[Ac lent]
-12.7 -20.3 53 -15  1045.8  -0.1  773  328           
15 28.01.12 050 (СВ) 10 км    1/0 средняя 
[Ac lent]
-14.1 -20.3 59 -18  1046.5  0.6  773  330    -11.7       
18 28.01.12 050 (СВ) 10 км    ясно 
-14.4 -18.7 70 -19  1046.6  0.1  773  330    -11.7       
21 28.01.12 030 (СВ) 10 км    ясно 
-15.8 -18.9 77 -16  1047.1  0.1  773  332           
00 29.01.12 030 (СВ) 10 км    ясно 
-16.8 -19.4 80 -19  1047.1  0.1  773  334           
03 29.01.12 020 (С) 10 км    ясно 
-17.6 -20.2 80 -20  1046.7  -0.5  773  335        53  равномерный
сухой снег
100% 
06 29.01.12 360 (С) >10 км    ясно 
-16.6 -18.6 84 -17  1046.2  -0.4  773  333  -17.6         
09 29.01.12 360 (С) >10 км    ясно 
-14.2 -18 73 -16  1045.2  -0.8  772  330           
12 29.01.12 010 (С) >10 км    ясно 
-14.6 -18.4 73 -18  1044.6  -0.7  772  330           
15 29.01.12 010 (С) 10 км    ясно 
-15.5 -19.3 73 -18  1044.2  -0.4  771  331    -13.8       
18 29.01.12 030 (СВ) 10 км  слаб. снег  9/9 600 м 
[Sc]
-16.1 -19.4 76 -20  1044.7  -0.4  772  332    -13.8       
21 29.01.12 350 (С) 10 км    ясно 
-18.7 -21.1 81 -21  1045.1  0.3  772  335           
00 30.01.12 020 (С) 10 км    ясно 
-20 -22.2 82 -23  1045.4  0.1  772  337           
03 30.01.12 040 (СВ) 10 км    ясно 
-20.8 -23 82 -24  1046  0.6  772  339        53  равномерный
сухой снег
100% 
06 30.01.12 060 (СВ) >10 км    ясно 
-20.7 -23.1 81 -25  1046.6  0.6  773  339  -20.9    0.0     
09 30.01.12 020 (С) >10 км    ясно 
-18.4 -21.8 74 -21  1047  0.5  773  336           
12 30.01.12 060 (СВ) >10 км    ясно 
-18.6 -22 74 -23  1046.9  -0.1  773  336           
15 30.01.12 050 (СВ) 10 км    ясно 
-18.7 -21.7 77 -21  1047.5  0.6  773  336    -18.1       
18 30.01.12 050 (СВ) 10 км    ясно 
-18.6 -21.9 75 -21  1047.9  0.4  774  336    -18.1       
21 30.01.12 060 (СВ) 10 км    ясно 
-20 -23.3 75 -24  1047.8  0.4  774  338           
00 31.01.12 050 (СВ) 10 км    1/0 верхняя 
[Ci fib]
-21.1 -24.6 74 -26  1047.8  0.1  774  340           
03 31.01.12 070 (В) 10 км    10/0 верхняя 
[Ci fib]
-21.3 -24.9 72 -27  1047.6  -0.1  773  340        53  равномерный
сухой снег
100% 
06 31.01.12 080 (В) 3{10}  10 км  {снег}  10/0 <0100 м средняя, верхняя 
[As op|Ci fib]
-22.5 -26.2 71 -27  1048.1  0.4  774  342  -21.3         
09 31.01.12 080 (В) 4{11}  10 км    10/0 <0100 м средняя 
[As trans]
-20.8 -24.9 69 -26  1048.1  0.1  774  339           
12 31.01.12 070 (В) 4{10}  4000 м  слаб. снег  10/0 <0100 м средняя 
[As trans]
-20.6 -24.2 73 -26  1048.3  0.2  774  339           
15 31.01.12 080 (В) 4{10}  10 км  {снег}  6/0 <0100 м средняя 
[As op]
-21.9 -25.9 70 -28  1049  0.6  774  341    -20.2       
18 31.01.12 100 (В) 4{10}  10 км  {снег}  4/0 средняя 
[As op]
-23.4 -28.1 66 -29  1049.8  0.7  775  343    -20.2  0.0     
21 31.01.12 070 (В) 10 км  слаб. снег  10/0 средняя 
[As trans]
-23.9 -28.6 65 -30  1050.1  0.3  775  344           
00 01.02.12 080 (В) 5{10}  10 км  {снег}  4/0 средняя 
[As trans]
-25 -29.5 65 -32  1050.2  775  346           
03 01.02.12 080 (В) 10 км    ясно 
-25.5 -30.1 65 -32  1051.2  776  347        53  равномерный
сухой снег
100% 
06 01.02.12 090 (В) >10 км    8/0 средняя, верхняя 
[Ac cast|Ci fib]
-25.7 -30.3 64 -32  1052.1  777  347  -25.5    0.0     
Время (UTC), дата Ветер
(°,м/с) 
Видим.   Явления Облачность Т
(°С)
Тd
(°С)
f(%) Тe
(°С)
Pmin
(гПа)
dP
(гПа)
Po
(мм)
O2
(г/м3)
Тmin Tmax R s Состояние
почвы